TimeCST,TemperatureF,Dew PointF,Humidity,Sea Level PressureIn,VisibilityMPH,Wind Direction,Wind SpeedMPH,Gust SpeedMPH,PrecipitationIn,Events,Conditions,WindDirDegrees,DateUTC
12:15 AM,41.5,32.0,69,30.41,10.0,SE,4.6,-,N/A,,Clear,130,2012-11-17 06:15:00
12:35 AM,39.6,31.6,73,30.41,10.0,SE,5.8,-,N/A,,Clear,130,2012-11-17 06:35:00
12:55 AM,39.6,31.8,74,30.41,10.0,SE,5.8,-,N/A,,Clear,130,2012-11-17 06:55:00
1:15 AM,40.1,32.0,73,30.41,10.0,ESE,9.2,-,N/A,,Clear,120,2012-11-17 07:15:00
1:35 AM,40.8,32.0,71,30.40,10.0,ESE,10.4,-,N/A,,Clear,120,2012-11-17 07:35:00
1:55 AM,40.1,31.8,72,30.41,10.0,SSE,4.6,-,N/A,,Clear,150,2012-11-17 07:55:00
2:15 AM,38.1,31.6,77,30.41,10.0,SE,4.6,-,N/A,,Clear,130,2012-11-17 08:15:00
2:35 AM,37.9,31.1,76,30.42,10.0,ESE,5.8,-,N/A,,Clear,120,2012-11-17 08:35:00
2:55 AM,38.7,30.7,73,30.42,10.0,SE,6.9,-,N/A,,Clear,130,2012-11-17 08:55:00
3:15 AM,39.2,31.1,73,30.41,10.0,SE,9.2,-,N/A,,Clear,130,2012-11-17 09:15:00
3:35 AM,39.4,30.9,72,30.42,10.0,SSE,5.8,-,N/A,,Clear,150,2012-11-17 09:35:00
3:55 AM,38.3,30.4,73,30.42,10.0,SE,8.1,-,N/A,,Clear,130,2012-11-17 09:55:00
4:15 AM,37.8,30.4,75,30.42,10.0,SE,5.8,-,N/A,,Clear,130,2012-11-17 10:15:00
4:35 AM,36.9,30.0,76,30.42,10.0,Calm,Calm,-,N/A,,Clear,0,2012-11-17 10:35:00
4:55 AM,36.9,29.8,76,30.42,10.0,SE,6.9,-,N/A,,Clear,130,2012-11-17 10:55:00
5:15 AM,36.5,29.7,76,30.42,10.0,ESE,9.2,-,N/A,,Clear,120,2012-11-17 11:15:00
5:35 AM,37.0,30.0,76,30.42,10.0,ESE,9.2,-,N/A,,Clear,120,2012-11-17 11:35:00
5:55 AM,37.2,30.0,75,30.43,10.0,SE,5.8,-,N/A,,Clear,130,2012-11-17 11:55:00
6:15 AM,36.0,29.8,78,30.43,10.0,ESE,6.9,-,N/A,,Clear,120,2012-11-17 12:15:00
6:35 AM,36.0,29.8,78,30.43,10.0,ESE,9.2,-,N/A,,Clear,120,2012-11-17 12:35:00
6:55 AM,37.0,29.8,75,30.43,10.0,SE,8.1,-,N/A,,Clear,130,2012-11-17 12:55:00
7:15 AM,36.7,29.7,76,30.44,10.0,SSE,4.6,-,N/A,,Clear,160,2012-11-17 13:15:00
7:35 AM,35.8,29.8,79,30.44,10.0,SE,4.6,-,N/A,,Clear,130,2012-11-17 13:35:00
7:55 AM,36.7,30.7,79,30.45,10.0,SE,5.8,-,N/A,,Clear,140,2012-11-17 13:55:00
8:15 AM,39.9,31.3,71,30.45,10.0,SSE,4.6,-,N/A,,Clear,150,2012-11-17 14:15:00
8:35 AM,42.6,31.3,64,30.46,10.0,SSE,6.9,-,N/A,,Clear,150,2012-11-17 14:35:00
8:55 AM,44.2,31.5,61,30.46,10.0,SSE,6.9,-,N/A,,Clear,150,2012-11-17 14:55:00
9:15 AM,45.7,32.0,59,30.46,10.0,SSE,6.9,-,N/A,,Clear,160,2012-11-17 15:15:00
9:35 AM,47.8,32.4,55,30.45,10.0,SSE,8.1,-,N/A,,Clear,150,2012-11-17 15:35:00
9:55 AM,49.6,32.2,51,30.46,10.0,SSE,11.5,-,N/A,,Clear,150,2012-11-17 15:55:00
10:15 AM,50.7,31.8,48,30.46,10.0,SE,10.4,-,N/A,,Clear,140,2012-11-17 16:15:00
10:35 AM,52.3,30.9,44,30.46,10.0,SSE,10.4,-,N/A,,Clear,150,2012-11-17 16:35:00
11:55 AM,57.0,29.7,35,30.42,10.0,SSE,8.1,-,N/A,,Clear,150,2012-11-17 17:55:00
12:15 PM,57.6,30.0,35,30.41,10.0,SSE,10.4,-,N/A,,Clear,150,2012-11-17 18:15:00
12:35 PM,58.6,30.0,34,30.40,10.0,SSE,6.9,-,N/A,,Clear,150,2012-11-17 18:35:00
12:55 PM,59.5,31.1,34,30.39,10.0,SE,6.9,-,N/A,,Clear,140,2012-11-17 18:55:00
1:15 PM,60.1,30.4,33,30.38,10.0,SE,10.4,-,N/A,,Clear,140,2012-11-17 19:15:00
1:55 PM,60.6,29.5,31,30.37,10.0,SE,9.2,-,N/A,,Clear,140,2012-11-17 19:55:00
2:15 PM,61.3,29.3,30,30.36,10.0,SSE,9.2,-,N/A,,Clear,150,2012-11-17 20:15:00
2:35 PM,61.2,29.3,30,30.35,10.0,SE,9.2,-,N/A,,Clear,130,2012-11-17 20:35:00
2:55 PM,61.3,29.7,30,30.35,10.0,SE,9.2,-,N/A,,Clear,130,2012-11-17 20:55:00
3:15 PM,61.2,29.3,30,30.35,10.0,SE,9.2,-,N/A,,Clear,140,2012-11-17 21:15:00
3:55 PM,58.8,29.1,32,30.34,10.0,SE,5.8,-,N/A,,Clear,130,2012-11-17 21:55:00
4:15 PM,58.6,30.7,35,30.34,10.0,SE,5.8,-,N/A,,Clear,130,2012-11-17 22:15:00
4:35 PM,56.1,29.8,37,30.33,10.0,ESE,5.8,-,N/A,,Clear,120,2012-11-17 22:35:00
4:55 PM,54.3,29.7,39,30.33,10.0,ESE,6.9,-,N/A,,Clear,120,2012-11-17 22:55:00
5:15 PM,52.9,29.7,41,30.32,10.0,ESE,6.9,-,N/A,,Clear,120,2012-11-17 23:15:00
5:55 PM,51.1,28.6,42,30.33,10.0,ESE,6.9,-,N/A,,Clear,120,2012-11-17 23:55:00
6:15 PM,50.4,28.2,42,30.33,10.0,ESE,8.1,-,N/A,,Clear,120,2012-11-18 00:15:00
6:35 PM,49.1,28.4,45,30.33,10.0,ESE,5.8,-,N/A,,Clear,120,2012-11-18 00:35:00
6:55 PM,48.2,28.2,46,30.33,10.0,ESE,6.9,-,N/A,,Clear,120,2012-11-18 00:55:00
7:15 PM,47.8,28.2,47,30.33,10.0,ESE,6.9,-,N/A,,Clear,120,2012-11-18 01:15:00
7:35 PM,47.7,28.0,47,30.33,10.0,ESE,8.1,-,N/A,,Clear,120,2012-11-18 01:35:00
7:55 PM,46.8,27.9,48,30.33,10.0,ESE,6.9,-,N/A,,Clear,120,2012-11-18 01:55:00
8:15 PM,46.2,27.5,48,30.34,10.0,ESE,8.1,-,N/A,,Clear,120,2012-11-18 02:15:00
8:55 PM,45.5,27.5,49,30.34,10.0,ESE,9.2,-,N/A,,Clear,120,2012-11-18 02:55:00
9:15 PM,45.7,27.1,48,30.34,10.0,ESE,8.1,-,N/A,,Clear,120,2012-11-18 03:15:00
9:35 PM,45.1,27.0,49,30.34,10.0,ESE,8.1,-,N/A,,Clear,110,2012-11-18 03:35:00
9:55 PM,44.6,27.0,50,30.34,10.0,ESE,8.1,-,N/A,,Clear,120,2012-11-18 03:55:00
10:15 PM,44.4,26.8,50,30.34,10.0,SE,9.2,-,N/A,,Clear,130,2012-11-18 04:15:00
10:35 PM,44.1,27.0,51,30.33,10.0,ESE,9.2,-,N/A,,Clear,120,2012-11-18 04:35:00
10:55 PM,43.9,27.1,52,30.33,10.0,ESE,9.2,-,N/A,,Clear,120,2012-11-18 04:55:00
11:15 PM,43.5,27.3,53,30.33,10.0,ESE,9.2,-,N/A,,Clear,120,2012-11-18 05:15:00
11:35 PM,42.8,27.5,55,30.34,10.0,SE,6.9,-,N/A,,Clear,130,2012-11-18 05:35:00
11:55 PM,41.7,27.3,57,30.35,10.0,SE,5.8,-,N/A,,Clear,140,2012-11-18 05:55:00